sat.trackr.live / text

‹ back to catalog

STARLINK-5911

NORAD 55950 · 2023-037AN

PAYLOAD ACTIVE UNKNOWN

§ Identity

Operator
Country
US
Launch date
2023-03-17
Launch site
AFWTR
Launch vehicle
Mass (kg)
RCS (m²)

Purposes: comms

External: N2YO · Heavens-Above · Gunter

§ Orbital elements

Epoch: 2026-05-25T03:32:26.039904Z

Period
96.11 min
Inclination
70.0002°
Eccentricity
0.0002947
Mean motion
14.98330624 rev/d
Perigee alt
570.0 km
Apogee alt
574.1 km
Semi-major
6,950.2 km
B*
4.6001e-5
RAAN
71.7685°
Arg perigee
269.6769°
Mean anomaly
90.4053°
Rev number
17,592

§ Raw data

STARLINK-59111 55950U 23037AN  26145.14752361  .00000456  00000+0  46001-4 0  99952 55950  70.0002  71.7685 0002947 269.6769  90.4053 14.98330624175921

JSON: /api/v1/satellites/55950 · /tle

For live sub-satellite position, see the globe view (requires WebGL).

§ Visibility from observer

Set your observer location to see the next 7 days of passes ≥ 10°. The values pass through the URL so the page stays shareable.

No JS? Fill the form by hand. The geolocation button needs JavaScript.